Tuttle Creek Lake Weather Center

Moon Phase Calendar



Tuttle Creek Lake Water Level
Online Cameras

 


      

Current Conditions in Riley
2/28/2021 9:56:32 AM

41°F
Feels Like 35
Clear
Humidity
70%
Pressure
30"
Wind
4.6 mph (W)
Dew Point
32°F
UV Index
2/10 (Low)
Visibility
6 mi

Hourly Forecast

Date & Time Sun, Feb 28
9:00 AM
Sun, Feb 28
10:00 AM
Sun, Feb 28
11:00 AM
Sun, Feb 28
12:00 PM
Sun, Feb 28
1:00 PM
Sun, Feb 28
2:00 PM
Sun, Feb 28
3:00 PM
Sun, Feb 28
4:00 PM
Sun, Feb 28
5:00 PM
Sun, Feb 28
6:00 PM
Sun, Feb 28
7:00 PM
Sun, Feb 28
8:00 PM
Sun, Feb 28
9:00 PM
Sun, Feb 28
10:00 PM
Sun, Feb 28
11:00 PM
Mon, Mar 1
12:00 AM
Mon, Mar 1
1:00 AM
Mon, Mar 1
2:00 AM
Mon, Mar 1
3:00 AM
Mon, Mar 1
4:00 AM
Mon, Mar 1
5:00 AM
Mon, Mar 1
6:00 AM
Mon, Mar 1
7:00 AM
Mon, Mar 1
8:00 AM
Mon, Mar 1
9:00 AM
Mon, Mar 1
10:00 AM
Mon, Mar 1
11:00 AM
Mon, Mar 1
12:00 PM
Mon, Mar 1
1:00 PM
Mon, Mar 1
2:00 PM
Mon, Mar 1
3:00 PM
Mon, Mar 1
4:00 PM
Mon, Mar 1
5:00 PM
Mon, Mar 1
6:00 PM
Mon, Mar 1
7:00 PM
Mon, Mar 1
8:00 PM
Mon, Mar 1
9:00 PM
Mon, Mar 1
10:00 PM
Mon, Mar 1
11:00 PM
Tue, Mar 2
12:00 AM
Tue, Mar 2
1:00 AM
Tue, Mar 2
2:00 AM
Tue, Mar 2
3:00 AM
Tue, Mar 2
4:00 AM
Tue, Mar 2
5:00 AM
Tue, Mar 2
6:00 AM
Tue, Mar 2
7:00 AM
Tue, Mar 2
8:00 AM
Condition
Clear

Clear

Clear

Clear

Clear

Clear

Clear

Clear

Clear

Clear

Clear

Clear

Clear

Clear

Clear

Clear

Clear

Clear

Clear

Clear

Clear

Clear

Clear

Clear

Clear

Clear

Clear

Clear

Clear

Clear

Clear

Clear

Clear

Clear

Clear

Clear

Clear

Clear

Clear

Clear

Clear

Clear

Clear

Clear

Clear

Clear

Clear

Clear
Temperature 41°F41°F43°F45°F46°F46°F46°F45°F43°F40°F37°F36°F35°F34°F33°F33°F32°F31°F31°F31°F31°F30°F30°F33°F38°F42°F45°F48°F49°F50°F51°F51°F50°F45°F42°F40°F39°F38°F37°F36°F35°F35°F34°F34°F34°F34°F33°F36°F
Feels Like 28°F28°F29°F31°F32°F33°F33°F32°F31°F30°F29°F28°F28°F27°F27°F26°F25°F25°F24°F23°F22°F22°F21°F23°F26°F31°F35°F39°F41°F42°F43°F43°F42°F38°F34°F33°F31°F30°F29°F29°F27°F26°F26°F26°F25°F25°F24°F25°F
Cloudiness 1%1%0%0%0%0%0%0%0%0%0%0%0%0%0%0%0%0%0%0%0%0%0%0%0%0%0%0%0%0%0%0%0%0%0%0%0%0%0%0%0%0%0%0%0%0%0%0%
Visibility 6 mi6 mi6 mi6 mi6 mi6 mi6 mi6 mi6 mi6 mi6 mi6 mi6 mi6 mi6 mi6 mi6 mi6 mi6 mi6 mi6 mi6 mi6 mi6 mi6 mi6 mi6 mi6 mi6 mi6 mi6 mi6 mi6 mi6 mi6 mi6 mi6 mi6 mi6 mi6 mi6 mi6 mi6 mi6 mi6 mi6 mi6 mi6 mi
Precipitation 0%0%0%0%0%0%0%0%0%0%0%0%0%0%0%0%0%0%0%0%0%0%0%0%0%0%0%0%0%0%0%0%0%0%0%0%0%0%0%0%0%0%0%0%0%0%0%0%
Humidity 70%67%60%56%54%53%53%56%61%68%75%78%81%82%83%83%85%85%84%83%82%81%81%74%61%49%39%34%31%30%30%31%35%46%53%59%64%67%70%71%72%73%71%66%62%61%60%58%
Dew Point 32°F31°F30°F30°F30°F30°F30°F30°F31°F31°F30°F30°F30°F29°F29°F28°F28°F27°F27°F27°F26°F26°F26°F26°F26°F24°F22°F21°F20°F20°F21°F22°F24°F26°F26°F27°F28°F28°F28°F28°F28°F27°F26°F24°F23°F22°F21°F23°F
Pressure 30"30"30.06"30.06"30.06"30.06"30.06"30.09"30.12"30.15"30.18"30.21"30.24"30.27"30.3"30.3"30.3"30.3"30.3"30.3"30.3"30.33"30.33"30.36"30.36"30.36"30.36"30.36"30.33"30.3"30.3"30.3"30.3"30.3"30.33"30.33"30.33"30.33"30.33"30.33"30.3"30.3"30.27"30.24"30.24"30.21"30.21"30.18"
Wind Speed 16.7 mph17.3 mph18.5 mph18.3 mph17.5 mph16.6 mph16.3 mph15.9 mph14.8 mph11.4 mph8.6 mph7.7 mph5.7 mph4.8 mph4.1 mph4.5 mph4.3 mph3.6 mph4.5 mph5.9 mph7 mph7.6 mph8.5 mph10.4 mph12.6 mph11.3 mph9.6 mph7 mph6 mph5.7 mph5.6 mph5.5 mph5.3 mph5.3 mph6 mph5.9 mph5.6 mph5.6 mph5.8 mph6 mph6.9 mph7.6 mph7 mph6.8 mph7 mph7.4 mph8 mph9.9 mph
Wind
Direction
332°
NNW
337°
NNW
341°
NNW
344°
NNW
351°
N
354°
N
356°
N
353°
N
349°
N
347°
NNW
346°
NNW
344°
NNW
344°
NNW
339°
NNW
319°
NW
306°
NW
293°
WNW
269°
W
254°
WSW
246°
WSW
245°
WSW
250°
WSW
243°
WSW
246°
WSW
263°
W
288°
WNW
302°
WNW
310°
NW
325°
NW
325°
NW
326°
NW
326°
NW
336°
NNW
350°
N

N
21°
NNE
48°
NE
76°
ENE
100°
E
117°
ESE
137°
SE
152°
SSE
166°
SSE
179°
S
189°
S
195°
SSW
196°
SSW
199°
SSW

Daily Forecast

Date High Low Precip. Humidity
Today
Feb 28

Clear
50 °F
33 °F
0%
59%
Monday
Mar 1

Clear
51 °F
30 °F
0%
48%
Tuesday
Mar 2

Clear
60 °F
34 °F
0%
39%
Wednesday
Mar 3

Clear
59 °F
36 °F
0%
42%
Thursday
Mar 4

Clear
63 °F
39 °F
0%
48%
Friday
Mar 5

Clouds
60 °F
44 °F
23%
58%
Saturday
Mar 6

Clouds
60 °F
45 °F
31%
60%
Sunday
Mar 7

Clear
64 °F
44 °F
0%
57%
Monday
Mar 8

Clouds
67 °F
50 °F
0%
58%
Tuesday
Mar 9

Clear
67 °F
51 °F
0%
47%
Wednesday
Mar 10

Rain
62 °F
55 °F
60%
67%
Thursday
Mar 11

Rain
65 °F
46 °F
53%
48%
Friday
Mar 12

Rain
67 °F
52 °F
73%
75%
Saturday
Mar 13

Clouds
64 °F
51 °F
0%
34%
Sunday
Mar 14

Rain
72 °F
49 °F
78%
64%
Monday
Mar 15

Rain
71 °F
48 °F
71%
41%


Temperature 8-14 Day Outlook



Precipitation 8-14 Day Outlook




Quick Links
Tuttle Creek Lake News
Tuttle Creek Lake Photos
Tuttle Creek Lake Videos




About Us
Contact Us
Site Map
Search Site
Advertise With Us
   
TuttleCreek.LakesOnline.com
THE TUTTLE CREEK LAKE WEBSITE

Copyright 2021, Lakes Online
Privacy    |    Legal